User: anonymous   Login
Location: Unspecified
(0.0000°N, 0.0000°E)
Time: 06:10:42
(UTC+00:00)
Language:

PERSEUS M1 - Orbit

View from above orbital plane
View from above orbital plane
View from above satellite
View from above satellite

Ground track
Ground track

The orbit data is extracted from the following two-line orbital elements,

1 40039U 14033AF  17296.27787744 +.00000211 +00000-0 +30486-4 0  9997
2 40039 097.9041 203.8283 0013005 239.7226 120.2703 14.85902022180786
Epoch (UTC): 23 October 2017 06:40:08
Eccentricity: 0.0013005
inclination: 97.9041°
perigee height: 601 km
apogee height: 620 km
right ascension of ascending node: 203.8283°
argument of perigee: 239.7226°
revolutions per day: 14.85902022
mean anomaly at epoch: 120.2703°
orbit number at epoch: 18078

The dashed part of the orbit path shows where the satellite is in the earth's shadow,  

DLR